Regional Weather Roundup
Issued by NWS

Home | Current Version | Previous Version | Graphics & Text | Print | Product List | Glossary On
Versions: 1 2 3 4 5 6 7 8 9 10 11 12 13 14 15 16 17 18 19 20 21 22 23 24 25 26 27 28 29 30 31 32 33 34 35 36 37 38 39 40 41 42 43 44 45 46 47 48 49 50
000
ASUS43 KIND 301509
RWRIN

WEATHER ROUNDUP FOR INDIANA
NATIONAL WEATHER SERVICE INDIANAPOLIS IN
1100 AM EDT THU MAR 30 2017

NOTE: "FAIR" INDICATES FEW OR NO CLOUDS BELOW 12,000 FEET WITH NO
SIGNIFICANT WEATHER AND/OR OBSTRUCTIONS TO VISIBILITY.

* - STATION DOES NOT REPORT WEATHER SUCH AS PRECIPITATION OR FOG.

+ - STATION NOT QUALITY CONTROLLED BY THE NATIONAL WEATHER SERVICE.
    USE DATA WITH CAUTION...ESPECIALLY DEWPOINT AND RELATIVE
    HUMIDITY OBSERVATIONS.

INZ001>003-010>013-019-020-301600-
NORTHWEST INDIANA

CITY           SKY/WX    TMP DP  RH WIND       PRES   REMARKS
GARY /AIRPORT/ CLOUDY    45  41  87 SE14G28   29.75S
KNOX *+        CLOUDY    43  28  56 E14G22    29.78R
LA PORTE +     DRIZZLE   43  40  89 SE21G28   29.80R
MICHIGAN CITY+ DRIZZLE   43  41  93 SE12G21   29.79R
MONTICELLO +   HVY RAIN  43  41  94 E9G21     29.74F
RENSSELAER +   TSTM      43  43 100 E16       29.73F
VALPARAISO     LGT RAIN  44  41  89 E17G29    29.75F

$$

LMZ046-743>745-301600-
SOUTHERN LAKE MICHIGAN

STATION/POSITION TIME  TEMP    WIND        PRES    WAVE
                       AIR SEA DIR/SP/G            HT
                 (UTC) (F)     (DEG/KT/KT) (MB)    (FT)
BURNS HARBOR     1440   45     140/ 16/ 29 1008.5R
MICHIGAN CITY    1440   44     100/ 15/ 17   N/A

$$

INZ004-005-014>016-021>024-301600-
NORTH CENTRAL INDIANA

CITY           SKY/WX    TMP DP  RH WIND       PRES   REMARKS
ELKHART        CLOUDY    41  39  93 E17G23    29.81F
GOSHEN         CLOUDY    43  37  79 E16G29    29.83R
LOGANSPORT +   CLOUDY    43  41  93 E17       29.77F
PERU/GRISSOM   CLOUDY    43  43 100 E22G29    29.74F
ROCHESTER +    RAIN      45  43  93 E17       29.79F
SOUTH BEND     CLOUDY    42 N/A N/A SE23G32   29.80R
WARSAW +       LGT RAIN  41  37  87 E18G29    29.80S

$$

INZ006>009-017-018-025>027-301600-
NORTHEAST INDIANA

CITY           SKY/WX    TMP DP  RH WIND       PRES   REMARKS
ANGOLA *+      CLOUDY    39  34  81 E20       29.83F
AUBURN +       LGT RAIN  41  37  87 E16G24    29.86F
FORT WAYNE     CLOUDY    43  39  86 E23G31    29.83F
HUNTINGTON +   CLOUDY    42  40  93 E8G17     29.83S
KENDALLVILLE + LGT RAIN  40  38  95 E17G28    29.82F

$$

INZ028-029-035-036-043>045-051>053-301600-
WEST CENTRAL INDIANA

CITY           SKY/WX    TMP DP  RH WIND       PRES   REMARKS
CRAWFORDSVL +  PTSUNNY   54  54 100 E10       29.69F
GREENCASTLE +  CLOUDY    61  52  72 E8        29.68F
LAFAYETTE      CLOUDY    46  45  96 E12       29.71F FOG
TERRE HAUTE    CLOUDY    61  54  77 VRB7      29.66F

$$

INZ030>032-037>040-046>048-054>057-064-065-301600-
CENTRAL INDIANA

CITY           SKY/WX    TMP DP  RH WIND       PRES   REMARKS
ANDERSON       MOSUNNY   50  46  87 E12       29.79F
CP ATTERBURY + PTSUNNY   61  50  67 SE7       29.73F
COLUMBUS       SUNNY     59  55  88 SE8       29.73F
FRANKFORT +    CLOUDY    51  47  87 E15G23    29.73F
GREENWOOD *+   PTSUNNY   58  51  78 SE6       29.73F
INDIANAPOLIS   CLOUDY    58  49  72 E9        29.71F
-EAGLE CREEK   CLOUDY    59  49  69 E10       29.72F
KOKOMO +       LGT RAIN  45  42  89 E18       29.77F
MARION +       CLOUDY    45  40  83 E20       29.79F
MT COMFORT *+  CLOUDY    54  50  87 E12       29.75F
SHELBYVILLE    CLOUDY    61  50  67 SE8       29.72F
ZIONSVILLE +   CLOUDY    55  48  79 E12       29.74F

$$

INZ033-034-041-042-049-050-058-059-301600-
EAST CENTRAL INDIANA

CITY           SKY/WX    TMP DP  RH WIND       PRES   REMARKS
MUNCIE         CLOUDY    49  43  80 E15       29.79F
RICHMOND +     LGT RAIN  50  46  87 SE10      29.79F

$$

INZ060-061-067>069-081>083-085>088-301600-
SOUTHWEST INDIANA

CITY           SKY/WX    TMP DP  RH WIND       PRES   REMARKS
EVANSVILLE     CLOUDY    71  58  63 S10       29.66F
HUNTINGBURG *+ PTSUNNY   71  59  65 SE10      29.68S
WASHINGTON +   CLOUDY    67  56  67 CALM      29.67R

$$

INZ062-063-066-070>080-084-089>092-301600-
SOUTH CENTRAL AND SOUTHEAST INDIANA

CITY           SKY/WX    TMP DP  RH WIND       PRES   REMARKS
BEDFORD +      PTSUNNY   63  54  72 SE8       29.69F
BLOOMINGTON    CLOUDY    63  52  67 SE8       29.67F
MADISON *+     PTSUNNY   63  52  67 SE6       29.76F
NORTH VERNON + PTSUNNY   61  61 100 SE6       29.76F
SEYMOUR +      PTSUNNY   63  54  72 SE13      29.72F

$$





USA.gov is the U.S. government's official web portal to all federal, state and local government web resources and services.